Погода в Катон-Карагае

Казахстан     49°10′21″N   85°36′01″E
темп.,
°C
ветер,
м/с
пор.,
м/с
влажн.,
%
обл.,
%
осадки,
мм/ч
давл.,
гПа
погр.,
м
25 февраля, чт
чт2500:00−5юв1195100 1.0 101623
03:00−4зюз1197100 3.3 101526
06:00−5зсз2397100 5.1 101480
09:00−7сз3495100 2.6 1017355
12:00−9ссз3393100 4.7 1022397
15:00−13сз3492100 1.6 1026410
18:00−18сз2284100 1.8 103125
21:00−20ссз129399 0.1 103429
26 февраля, пт
пт2600:00−19юз1192100 0.6 103625
03:00−21ююз1184100 0.2 103734
06:00−21зюз2381100 0.3 104048
09:00−20з2582100 0.2 1042494
12:00−18з4565100 0.3 10421156
15:00−18з4566100 0.0 10411170
18:00−22ссв0182100 0.0 104220
21:00−23юв1189100 0.0 104521
27 февраля, сб
сб2700:00−23вюв2288100 0.1 104425
03:00−23вюв2280100 0.1 104438
06:00−23вюв2376100 0.1 104436
09:00−21всв2376100 0.0 1043128
12:00−17св226791 0.0 1040458
15:00−16с116871 0.0 1038481
18:00−22ююв118255 0.0 104020
21:00−22вюв226766 0.0 104323
28 февраля, вс
вс2800:00−21в236683 0.0 104328
03:00−20в2366100 0.0 104332
06:00−20в2364100 0.0 104429
09:00−16в3471100 0.0 1043141
12:00−12всв346390 0.0 1040420
15:00−10в346296 0.0 1037518
18:00−14юв336695 0.0 103639
21:00−13вюв3473100 0.0 103678
1 марта, пн
пн100:00−13в3473100 0.0 103471
03:00−12в3475100 0.0 103269
06:00−11в3477100 0.0 103169
09:00−9в3478100 0.0 1029193
12:00−5всв3479100 0.0 1026385
15:00−4всв2478100 0.1 1024436
18:00−7вюв2392100 0.5 102595
21:00−7вюв2391100 1.1 102797